Regional Weather Roundup
Issued by NWS Cleveland, OH

Home | Current Version | Previous Version | Graphics & Text | Print | Product List | Glossary On
Versions: 1 2 3 4 5 6 7 8 9 10 11 12 13 14 15 16 17 18 19 20 21 22 23 24 25 26 27 28 29 30 31 32 33 34 35 36 37 38 39 40 41 42 43 44 45 46 47 48 49 50
000
ASUS41 KCLE 212010
RWRCLE
OHIO REGIONAL WEATHER ROUNDUP
NATIONAL WEATHER SERVICE CLEVELAND, OH
400 PM EDT TUE OCT 21 2014

NOTE: "FAIR" INDICATES FEW OR NO CLOUDS BELOW 12,000 FEET WITH NO
SIGNIFICANT WEATHER AND/OR OBSTRUCTIONS TO VISIBILITY.

OHZ001>008-015>018-024>027-034-035-043-044-212100-
   NORTHWEST OHIO

CITY           SKY/WX    TMP DP  RH WIND       PRES   REMARKS
DEFIANCE       CLOUDY    50  39  66 N15       30.10R
FINDLAY        CLOUDY    49  40  71 N9        30.07R
TOLEDO EXPRESS CLOUDY    47  37  68 N16G23    30.09R
TOLEDO EXEC    CLOUDY    48  38  68 N13       30.09R
LIMA           CLOUDY    50  41  71 N12       30.07R
$$

OHZ009>014-019>023-028>033-038-089-212100-
   NORTHEAST OHIO

CITY           SKY/WX    TMP DP  RH WIND       PRES   REMARKS
CLE-HOPKINS    LGT RAIN  48  43  82 NW15G23   30.02R
CLE-LAKEFRONT  LGT RAIN  50  45  83 NW23G30   29.98R
CUY CO. ARPT   LGT RAIN  50  46  87 N13G21    29.97R
LORAIN-ELYRIA  CLOUDY    46  43  89 N15G24    30.02R
ASHTABULA      LGT RAIN  49  45  86 NW6       29.95R
AKRON-CANTON   CLOUDY    49  43  80 N10       29.96R
WOOSTER        CLOUDY    49  43  80 NW18      30.00R
MANSFIELD      CLOUDY    46  41  82 NW16      30.01R
YOUNGSTOWN     LGT RAIN  47  45  93 NW9       29.94R FOG
$$

OHZ042-051>053-060>062-070>072-077>081-212100-
  SOUTHWEST OHIO

CITY           SKY/WX    TMP DP  RH WIND       PRES   REMARKS
CINC-COVINGTON CLOUDY    53  39  59 N10       30.06R
CINC-LUNKEN    CLOUDY    54  42  64 N6        30.07R
HAMILTON       CLOUDY    55  43  63 NW10      30.08R
DAYTON         CLOUDY    53  44  71 N13       30.07R
WRIGHT-PAT AFB CLOUDY    52  44  75 NW10      30.05R
DAYTON GENERAL CLOUDY    52  44  74 N9        30.05R
WILMINGTON     LGT RAIN  51  42  71 N14       30.05R
$$

OHZ036-037-039>041-045>050-054>059-063>069-073>076-082>088-212100-
  CENTRAL AND SOUTHEAST OHIO

CITY           SKY/WX    TMP DP  RH WIND       PRES   REMARKS
COLUMBUS       CLOUDY    49  44  83 N18G24    30.02R
OSU AIRPORT    CLOUDY    48  43  82 N10       30.04R
BOLTON FIELD   NOT AVBL
RICKENBACK AFB RAIN      50  45  82 N15G23    30.02R
NEWARK         CLOUDY    51  43  74 NW12G22   30.01R
MARION         CLOUDY    47  40  76 N17       30.04R
LANCASTER      LGT RAIN  49  46  90 N9        30.02R FOG
ZANESVILLE     CLOUDY    49  44  83 N12G20    29.98R
NEW PHILLY     CLOUDY    51  44  77 NW12      29.97R
$$



USA.gov is the U.S. government's official web portal to all federal, state and local government web resources and services.